Location: *
(50.6089°N, 2.2719°E)
Time: 11:24:18
(UTC+00:00)

Okean-O - Pass Details

Date: 18 October 2019
Orbit: 639 x 641 km, 98.2° (Epoch: 20 November)

Event Time Altitude Azimuth Distance (km) Brightness Sun altitude
Rises 17:24:45 0° 165° (SSE) 2,936 6.0 -5.7°
Reaches altitude 10° 17:26:57 10° 166° (SSE) 2,031 5.2 -6.0°
Maximum altitude 17:31:23 85° 256° (WSW) 651 2.8 -6.7°
Drops below altitude 10° 17:35:51 10° 345° (NNW) 2,047 5.4 -7.4°
Sets 17:38:04 0° 346° (NNW) 2,961 6.2 -7.8°
